Weather Roundup
Issued by NWS Chicago, IL

Home | Current Version | Previous Version | Graphics & Text | Print | Product List | Glossary On
Versions: 1 2 3 4 5 6 7 8 9 10 11 12 13 14 15 16 17 18 19 20 21 22 23 24 25 26 27 28 29 30 31 32 33 34 35 36 37 38 39 40 41 42 43 44 45 46 47 48 49 50
000
NZUS59 KLOT 260708
HRRLOT

CHICAGO AREA WEATHER ROUNDUP
NATIONAL WEATHER SERVICE CHICAGO/ROMEOVILLE IL
200 AM CDT WED APR 26 2017

NOTE: "FAIR" INDICATES FEW OR NO CLOUDS BELOW 12,000 FEET WITH NO
SIGNIFICANT WEATHER AND/OR OBSTRUCTIONS TO VISIBILITY.

* THESE STATIONS ARE NOT UNDER NWS QUALITY CONTROL. THEY ALSO MAY NOT
  REPORT WEATHER SUCH AS PRECIPITATION OR FOG.

ILZ005-006-012>014-019>023-260800-
NORTHEAST ILLINOIS

CITY           SKY/WX    TMP DP  RH WIND       PRES   REMARKS
OHARE          CLOUDY    68  54  60 S15       29.51F
MIDWAY         CLOUDY    69  55  60 S13G21    29.52F
AURORA         CLOUDY    67  55  65 SE13      29.50F
LANSING*       CLOUDY    65  57  74 SE9       29.55F
JOLIET*        PTCLDY    67  56  67 S8        29.52F
WAUKEGAN       CLOUDY    58  52  80 SE7       29.52F
DUPAGE AIRPORT CLOUDY    67  56  67 S14       29.50F
WHEELING       CLOUDY    67  55  65 S13G20    29.52F
KANKAKEE*      CLOUDY    65  55  67 SE8G16    29.54F
MORRIS*        CLOUDY    67  55  65 S14G20    29.50F
LEWIS AIRPORT* PTCLDY    65  57  77 S13       29.51F
NORTHERLY ISL    N/A     59  52  77 S5          N/A
$$

WIZ051-052-058>065-066-070>072-260800-
SOUTHEAST WISCONSIN

CITY           SKY/WX    TMP DP  RH WIND       PRES   REMARKS
MILWAUKEE      CLOUDY    57  51  80 SE8       29.52F
KENOSHA*       CLOUDY    61  51  70 SE7       29.52F
RACINE*        CLOUDY    55  48  77 S10       29.54F
WAUKESHA       CLOUDY    59  50  72 SE8       29.53S
WEST BEND      CLOUDY    59  52  77 SE6       29.52F
$$

INZ001>003-010>013-019-020-260800-
NORTHWEST INDIANA

CITY           SKY/WX    TMP DP  RH WIND       PRES   REMARKS
GARY*          MOCLDY    67  53  60 SE8       29.55F
MICHIGAN CITY* NOT AVBL
RENSSELAER*    NOT AVBL
VALPARAISO     PTCLDY    66  56  70 SE10      29.58F
$$

LMZ740>746-260800-
SOUTHERN LAKE MICHIGAN

STATION/POSITION TIME  SKY/WX   TEMP WIND        PRES    VSBY
                                AIR  DIR/SP/G
                 (UTC)          (F)  (DEG/KT/KT) (MB)    (MI)
HARRISON CRIB    0630            60  150/ 15/ 16   N/A
BURNHAM HARBOR   0700            59  160/  4/  8   N/A
CALUMET HARBOR   0648            67  150/  8/ 11 1000.0F
BURNS HARBOR     0640            68  160/  8/ 18 1001.7F
MICHIGAN CITY    0640            67  150/  9/ 11   N/A
$$

ABBREVIATIONS USED IN REMARKS
   TC - TEMPERATURE IN CELSIUS
  WCI - WIND CHILL INDEX
   HX - HEAT INDEX
  VSB - VISIBILITY
$$



USA.gov is the U.S. government's official web portal to all federal, state and local government web resources and services.